Regional Weather Roundup
Issued by NWS

Home | Current Version | Previous Version | Graphics & Text | Print | Product List | Glossary On
Versions: 1 2 3 4 5 6 7 8 9 10 11 12 13 14 15 16 17 18 19 20 21 22 23 24 25 26 27 28 29 30 31 32 33 34 35 36 37 38 39 40 41 42 43 44 45 46 47 48 49 50
000
ASUS43 KBIS 081510
RWRND

NORTH DAKOTA REGIONAL WEATHER ROUNDUP
NATIONAL WEATHER SERVICE BISMARCK ND
900 AM CST THU DEC 08 2016

NOTE: "FAIR" INDICATES FEW OR NO CLOUDS BELOW 12,000 FEET WITH NO
SIGNIFICANT WEATHER AND/OR OBSTRUCTIONS TO VISIBILITY.


NDZ001>003-009>011-017-081600-
NORTHWEST NORTH DAKOTA

CITY           SKY/WX    TMP DP  RH WIND       PRES   REMARKS
WILLISTON      CLEAR     -5 -11  75 W9        30.67R WCI -22
MINOT          CLEAR     -2  -8  76 W17       30.60R WCI -23
MINOT AFB      CLEAR     -5 -10  77 NW18      30.59R WCI -28
$$

NDZ018>021-031>035-040>046-081600-
SOUTHWEST NORTH DAKOTA

CITY           SKY/WX    TMP DP  RH WIND       PRES   REMARKS
BISMARCK       CLOUDY     1  -5  75 W12       30.63R WCI -16
DICKINSON      CLOUDY    -6 -11  79 NW22      30.56R HAZE    WCI -31
GARRISON         N/A     -3  -9  75 NW13      30.60R WCI -22
HETTINGER ARPT CLEAR     -8 -13  78 NW15      30.58R WCI -30
$$

NDZ004>008-012>016-024-026-027-054-081600-
NORTHEAST NORTH DAKOTA

CITY           SKY/WX    TMP DP  RH WIND       PRES   REMARKS
GRAND FORKS    LGT SNOW  15  10  80 NW22      30.47R WCI  -3
GRND FRKS AFB  LGT SNOW  14   9  79 NW18      30.48R WCI  -3
DEVILS LAKE    FLURRIES   4   0  83 NW22      30.51R WCI -18
$$

NDZ022-023-025-028>030-036>039-047>053-081600-
SOUTHEAST NORTH DAKOTA

CITY           SKY/WX    TMP DP  RH WIND       PRES   REMARKS
FARGO          LGT SNOW  16   9  74 NW22G28   30.47R WCI  -2
JAMESTOWN      CLOUDY     4   0  83 NW25G32   30.52R FOG     WCI -19
$$




USA.gov is the U.S. government's official web portal to all federal, state and local government web resources and services.